Regional Weather Roundup
Issued by NWS

Home | Current Version | Previous Version | Text Only | Print | Product List | Glossary Off
Versions: 1 2 3 4 5 6 7 8 9 10 11 12 13 14 15 16 17 18 19 20 21 22 23 24 25 26 27

000
ASUS45 KCYS 220710
RWRWY

WYOMING REGIONAL WEATHER ROUNDUP
NATIONAL WEATHER SERVICE CHEYENNE WY
100 AM MDT TUE APR 22 2014

NOTE:  "FAIR" INDICATES FEW OR NO CLOUDS BELOW 12,000 FEET
WITH NO SIGNIFICANT WEATHER AND/OR OBSTRUCTIONS TO VISIBILITY.

WYZ001-220800-
YELLOWSTONE NATIONAL PARK

CITY           SKY/WX    TMP DP  RH WIND       PRES   REMARKS
LK YELLOWSTONE   N/A     30  25  81 CALM      30.08F
W YELLOWSTONE  NOT AVBL

$$
WYZ002>013-054>058-071-098>099-220800-
NORTHERN WYOMING

CITY           SKY/WX    TMP DP  RH WIND       PRES   REMARKS
JACKSON        CLOUDY    41  32  70 CALM      30.03S
CODY           MOCLDY    45  28  53 S3        29.96F
GREYBULL       CLOUDY    52  30  43 CALM      29.92F
WORLAND        MOCLDY    46  31  55 S7        29.93F
SHERIDAN         N/A     37  28  70 NE6         N/A  WCI  33
BUFFALO        MOCLDY    50  29  44 SE5       30.00F
GILLETTE       MOCLDY    51  31  46 S14       30.01F
HULETT         FAIR      52  30  43 CALM      30.03
NEWCASTLE      FAIR      54  23  30 E17       30.06

$$
WYZ014>020-022>026-101>103-220800-
CENTRAL WYOMING

CITY           SKY/WX    TMP DP  RH WIND       PRES   REMARKS
BIG PINEY      MOCLDY    44  25  47 E7        30.07F
PINEDALE       CLOUDY    41  32  70 NE8       30.07F
DUBOIS         PTSUNNY   39  21  48 CALM      30.06F
LANDER         CLEAR     49  24  37 NW6       29.97F
RIVERTON       CLEAR     43  18  36 NW6       29.98F
CASPER         PTCLDY    36  31  82 CALM      30.02F
DOUGLAS        CLEAR     46  35  65 SE10      30.04F

$$
WYZ021-027>030-104>119-220800-
SOUTHERN WYOMING

CITY           SKY/WX    TMP DP  RH WIND       PRES   REMARKS
EVANSTON         N/A     51  25  36 SE6       30.04F
KEMMERER       CLOUDY    46  28  49 NW5       30.07F
FORT BRIDGER   FAIR      48  25  41 S10       30.08F
ROCK SPRINGS   MOCLDY    50  24  36 S7        30.07F
DIXON          FAIR      42  29  61 CALM      30.14F
RAWLINS        MOCLDY    38  15  39 CALM      30.10F
SARATOGA       FAIR      39  27  60 S5        30.14S
LARAMIE        PTCLDY    40  31  70 S13       30.15S WCI  32
CHEYENNE       PTCLDY    45  32  60 W5        30.13F
TORRINGTON     CLEAR     44  31  60 E9        30.06F
PINE BLUFFS    FAIR      48  32  53 SE14      30.11F

$$



USA.gov is the U.S. government's official web portal to all federal, state and local government web resources and services.